Fargo, ND

10:57 AM CST on February 19, 2017 (GMT -0600)
Hector International

Weather History for KFAR - June, 2013

Change the Weather History Date:

Wednesday, June 19, 2013

  Actual Average Record
Temperature  
Mean Temperature 77 °F 67 °F  
Max Temperature 89 °F 78 °F 101 °F (1933)
Min Temperature 64 °F 56 °F 37 °F (1969)
Degree Days  
Heating Degree Days 0 2  
Month to date heating degree days 62 57  
Since 1 June heating degree days 62 57  
Since 1 July heating degree days 9304 8786  
Cooling Degree Days 12 4  
Month to date cooling degree days 50 53  
Year to date cooling degree days 79 84  
Since 1 June cooling degree days 50 53  
Growing Degree Days 26 (Base 50)    
Moisture  
Dew Point 54 °F    
Average Humidity 49    
Maximum Humidity 68    
Minimum Humidity 29    
Precipitation  
Precipitation 0.00 in 0.13 in 4.64 in (2000)
Month to date precipitation 1.09 2.45  
Year to date precipitation 13.99 9.26  
Snow  
Snow 0.00 in 0.00 in 0.00 in ()
Month to date snowfall 0.0 0.0  
Since 1 June snowfall 0.0 0.0  
Since 1 July snowfall 68.4 50.4  
Snow Depth 0.00 in    
Sea Level Pressure  
Sea Level Pressure 29.90 in    
Wind  
Wind Speed 10 mph (SSE)    
Max Wind Speed 15 mph    
Max Gust Speed 22 mph    
Visibility 10 miles    
Events      
T = Trace of Precipitation, MM = Missing Value Source: NWS Daily Summary

Daily Weather History Graph

Daily Weather History Graph

Search for Another Location

Airport or City:

Trip Planner

Search our weather history database for the weather conditions in past years. The results will help you decide how hot, cold, wet, or windy it might be!

Date:

Astronomy

Jun. 19, 2013 Rise Set
Actual Time 5:32 AM CDT 9:25 PM CDT
Civil Twilight 4:52 AM CDT 10:05 PM CDT
Nautical Twilight 3:57 AM CDT 10:59 PM CDT
Astronomical Twilight 2:36 AM CDT 12:20 AM CDT
Moon 5:09 PM CDT 2:30 AM CDT
Length of Visible Light 17h 12m
Length of Day
15h 53m
Waxing Gibbous, 80% of the Moon is Illuminated
Jun 19
Waxing Gibbous
Jun 23
Full
Jun 29
Last Quarter
Jul 8
New
Jul 15
First Quarter

Hourly Weather History & Observations

Time (CDT) Temp. Heat Index Dew Point Humidity Pressure Visibility Wind Dir Wind Speed Gust Speed Precip Events Conditions
12:53 AM 69.1 °F - 51.1 °F 53% 29.96 in 10.0 mi SSE 12.7 mph - N/A   Clear
1:53 AM 68.0 °F - 52.0 °F 56% 29.95 in 10.0 mi SSE 12.7 mph - N/A   Clear
2:53 AM 66.9 °F - 53.1 °F 61% 29.95 in 10.0 mi SSE 10.4 mph - N/A   Scattered Clouds
3:53 AM 66.0 °F - 53.1 °F 63% 29.96 in 10.0 mi South 10.4 mph - N/A   Overcast
4:53 AM 64.9 °F - 54.0 °F 68% 29.95 in 10.0 mi SSE 8.1 mph - N/A   Clear
5:53 AM 64.9 °F - 54.0 °F 68% 29.95 in 10.0 mi SSE 11.5 mph - N/A   Clear
6:53 AM 66.0 °F - 55.0 °F 68% 29.95 in 10.0 mi SSE 11.5 mph - N/A   Clear
7:53 AM 70.0 °F - 55.9 °F 61% 29.94 in 10.0 mi South 10.4 mph - N/A   Clear
8:53 AM 73.0 °F - 57.0 °F 57% 29.94 in 10.0 mi South 11.5 mph - N/A   Clear
9:53 AM 77.0 °F - 55.9 °F 48% 29.94 in 10.0 mi SSE 11.5 mph - N/A   Clear
10:53 AM 80.1 °F 80.4 °F 57.0 °F 45% 29.92 in 10.0 mi South 9.2 mph - N/A   Clear
11:53 AM 82.9 °F 82.1 °F 55.9 °F 39% 29.91 in 10.0 mi SSE 8.1 mph - N/A   Clear
12:53 PM 82.0 °F 81.3 °F 54.0 °F 38% 29.90 in 10.0 mi South 6.9 mph - N/A   Clear
1:53 PM 84.0 °F 82.5 °F 53.1 °F 34% 29.89 in 10.0 mi South 6.9 mph - N/A   Partly Cloudy
2:53 PM 88.0 °F 86.1 °F 55.0 °F 32% 29.87 in 10.0 mi South 12.7 mph - N/A   Partly Cloudy
3:53 PM 86.0 °F 84.0 °F 53.1 °F 32% 29.86 in 10.0 mi South 5.8 mph - N/A   Clear
4:53 PM 87.1 °F - 52.0 °F 30% 29.85 in 10.0 mi ESE 8.1 mph - N/A   Clear
5:53 PM 88.0 °F - 51.1 °F 28% 29.83 in 10.0 mi SE 11.5 mph - N/A   Clear
6:53 PM 88.0 °F - 52.0 °F 29% 29.83 in 10.0 mi SSE 8.1 mph - N/A   Clear
7:53 PM 87.1 °F - 51.1 °F 29% 29.83 in 10.0 mi SSE 8.1 mph - N/A   Clear
8:53 PM 82.9 °F 81.8 °F 53.1 °F 36% 29.83 in 10.0 mi ESE 5.8 mph - N/A   Clear
9:53 PM 80.1 °F 80.0 °F 54.0 °F 40% 29.85 in 10.0 mi ESE 8.1 mph - N/A   Mostly Cloudy
10:53 PM 78.1 °F - 57.0 °F 48% 29.85 in 10.0 mi ESE 11.5 mph - N/A   Clear
11:53 PM 75.9 °F - 57.0 °F 52% 29.84 in 10.0 mi ESE 10.4 mph - N/A   Clear